[[{"header":{"parameterUnit":"m.s-1","parameterCategory":2,"la1":30.2991,"la2":30.254,"lo1":-89.0895,"lo2":-89.0444,"dy":0.0017,"dx":0.0017,"nx":28,"ny":28,"refTime":"2025-09-14T21:00:00:Z","depth":"0","parameterNumber":2,"parameterNumberName":"U-component_of_CURRENTS"},"data":[0,0,0,0,0,0,0,0,0,0,0,0,0,0,0,0,0,0,0,0,0,0,0,0,0,0,0,0,0,0,0,0,0,0,0,0,0,0,0,0,0,0,0,0,0,0,0,0,0,0,0,0,0,0,0,0,0,0,0.3002,0.3003,0,0.3048,0.3048,0.3048,0.3015,0.3014,0.3013,0.3012,0.2951,0.295,0.295,0,0,0,0,0,0,0,0,0,0,0,0,0,0.2967,0.2967,0.3002,0.3003,0.3004,0.3048,0.3048,0.3048,0.3015,0.3014,0.3013,0.3012,0.2951,0.2951,0.295,0,0,0,0,0,0,0,0,0,0,0,0,0,0.299,0.2967,0.3002,0.2997,0.2997,0.3048,0.3048,0.3048,0.3015,0.3014,0.3012,0.3011,0.2952,0.2951,0.295,0.2973,0,0,0.2946,0.2946,0,0,0,0,0,0,0,0,0.2988,0.299,0.2997,0.2998,0.2998,0.3029,0.3014,0.3019,0.3016,0.3003,0.3012,0.301,0.2972,0.2969,0.2975,0.297,0.2967,0.2946,0.2946,0.2945,0.2945,0,0,0,0,0,0,0,0.2987,0.2989,0.3015,0.2998,0.2999,0.302,0.302,0.3015,0.2989,0.3004,0.3003,0.3017,0.297,0.2976,0.2973,0.2966,0.2946,0.2945,0.2945,0.2944,0.2999,0.3001,0,0,0,0,0,0,0.2989,0.2987,0.3014,0.3017,0.2995,0.3022,0.3022,0.3016,0.2991,0.2989,0.3018,0.3015,0.2979,0.2974,0.2971,0.3013,0.2945,0.2944,0.2944,0.2997,0.2999,0.3002,0,0,0,0,0,0,0.2988,0.299,0.3012,0.3008,0.3013,0.3024,0.3018,0.3018,0.3028,0.3004,0.2998,0.3029,0.2977,0.2972,0.2968,0.3009,0.2944,0.2943,0.2994,0.2998,0.3,0.3086,0,0,0,0,0,0,0.2986,0.2989,0.299,0.3008,0.3013,0.3046,0.302,0.302,0.3041,0.3038,0.3012,0.3005,0.2976,0.297,0.2967,0.3007,0.2942,0.2992,0.2996,0.2999,0.3081,0.3092,0.3102,0,0,0,0,0,0.2984,0.2989,0.2989,0.2993,0.3012,0.3048,0.3053,0.3053,0.3043,0.3055,0.3034,0.3006,0.2994,0.2971,0.2967,0.3007,0.299,0.2995,0.2999,0.3076,0.309,0.3101,0,0,0,0,0,0,0.2958,0.2988,0.2987,0.2995,0.3024,0.3044,0.3055,0.3065,0.3062,0.3052,0.3022,0.3014,0.3032,0.301,0.2986,0.3037,0.2992,0.2996,0.3052,0.3065,0.3075,0.3082,0.2941,0,0,0,0,0,0.296,0.2981,0.3004,0.3015,0.3024,0.3044,0.3061,0.3068,0.3072,0.3069,0.3055,0.3044,0.3052,0.3047,0.3043,0.3064,0.3056,0.3092,0.3102,0.3111,0.3116,0.3164,0.318,0.3017,0.3017,0.3017,0,0,0.2958,0.2976,0.2988,0.3015,0.3028,0.3055,0.3048,0.3077,0.3107,0.3063,0.3081,0.3078,0.3067,0.3091,0.3099,0.3073,0.3151,0.3117,0.3125,0.3125,0.3171,0.3187,0.3201,0.302,0.302,0.3019,0,0,0.296,0.2972,0.2984,0.3012,0.3047,0.3072,0.3085,0.3112,0.3124,0.3151,0.3136,0.3158,0.3152,0.3165,0.3169,0.3237,0.3207,0.3239,0.3292,0.334,0.3353,0.3365,0.336,0.337,0.3242,0.3242,0.3242,0,0.2951,0.2969,0.2997,0.3014,0.3043,0.3081,0.3104,0.3135,0.3163,0.3187,0.3161,0.3208,0.3194,0.3252,0.3272,0.3262,0.3262,0.3243,0.3353,0.3365,0.3376,0.3367,0.3378,0.3247,0.3246,0.3245,0.3245,0,0.2962,0.2981,0.2991,0.3031,0.3069,0.3101,0.315,0.3192,0.3216,0.3248,0.3306,0.3302,0.3332,0.3343,0.3321,0.3405,0.337,0.3363,0.332,0.3397,0.3383,0.3393,0.3253,0.3252,0.325,0.3249,0,0,0.2924,0.2986,0.2989,0.3014,0.3082,0.3116,0.3182,0.3256,0.3308,0.3345,0.3408,0.3441,0.3453,0.346,0.3458,0.3493,0.3561,0.346,0.346,0.345,0.3631,0.3469,0.3463,0.3576,0.3579,0.3581,0.3584,0,0.2919,0.2956,0.2997,0.3054,0.3079,0.3151,0.3215,0.3294,0.335,0.3422,0.3468,0.3515,0.3496,0.3513,0.3558,0.3567,0.3593,0.3558,0.3561,0.356,0.3404,0.3472,0.3268,0.3243,0.3593,0.3595,0.3596,0,0.2904,0.2943,0.2984,0.3075,0.3092,0.3136,0.3257,0.3319,0.3438,0.3481,0.3558,0.3591,0.3668,0.363,0.37,0.3679,0.3662,0.3657,0.3657,0.3482,0.3417,0.3226,0.3246,0.3168,0.361,0.3609,0.3608,0,0.2863,0.2932,0.2972,0.3,0.3109,0.3147,0.3209,0.3328,0.3392,0.3516,0.3573,0.3671,0.3715,0.3747,0.3736,0.3732,0.3782,0.3776,0.3611,0.3598,0.341,0.3375,0.3349,0.3818,0.3818,0.3818,0.3818,0,0.2841,0.2871,0.2953,0.2976,0.3042,0.3119,0.3197,0.3283,0.3402,0.348,0.359,0.3661,0.3749,0.3788,0.3771,0.3707,0.3814,0.3625,0.36,0.3429,0.3398,0.3307,0.3296,0.3818,0.3818,0.3818,0.3818,0,0.2783,0.2835,0.2886,0.2987,0.3016,0.3059,0.3169,0.3233,0.3353,0.3459,0.3502,0.3669,0.3708,0.3743,0.3781,0.3725,0.357,0.3632,0.3394,0.3339,0.3087,0.3088,0.2939,0.2867,0.3464,0.346,0.3457,0,0.2752,0.2775,0.287,0.2898,0.2935,0.3005,0.3058,0.3187,0.3255,0.3446,0.3493,0.359,0.3606,0.3597,0.3519,0.3437,0.3405,0.3213,0.3167,0.3044,0.303,0.2969,0.2917,0.2955,0.2948,0.2942,0.2937,0,0.2707,0.2742,0.2788,0.2835,0.2881,0.2942,0.3017,0.3063,0.322,0.3284,0.3362,0.3385,0.3384,0.3222,0.3137,0.3079,0.3039,0.3087,0.305,0.2696,0.2542,0.2467,0.2962,0.2886,0.2891,0.2895,0.2897,0.29,0.2666,0.2678,0.2728,0.2765,0.2815,0.285,0.2842,0.2917,0.2963,0.3001,0.3133,0.3051,0.2987,0.2823,0.2767,0.254,0.2635,0.2441,0.2471,0.2437,0.2298,0.2642,0.248,0.2483,0.2485,0.2487,0.2489,0,0.2597,0.2618,0.2652,0.268,0.2675,0.2739,0.2793,0.2744,0.27,0.273,0.2703,0.2529,0.2352,0.2299,0.2085,0.196,0.1919,0.1914,0.1823,0.1823,0.2196,0.2104,0.1743,0.1743,0.1743,0.1743,0.1743,0.1743,0.2562,0.2555,0.2564,0.2522,0.2532,0.2467,0.2454,0.2389,0.2364,0.2175,0.203,0.2009,0.199,0.1832,0.1638,0.1589,0.1532,0.1386,0.1498,0.1795,0.1849,0.19,0.1812,0.1395,0.1394,0.1013,0.101,0.1008]},{"header":{"parameterUnit":"m.s-1","parameterCategory":2,"la1":30.2991,"la2":30.254,"lo1":-89.0895,"lo2":-89.0444,"dy":0.0017,"dx":0.0017,"nx":28,"ny":28,"refTime":"2025-09-14T21:00:00:Z","depth":"0","parameterNumber":3,"parameterNumberName":"V-component_of_CURRENTS"},"data":[0,0,0,0,0,0,0,0,0,0,0,0,0,0,0,0,0,0,0,0,0,0,0,0,0,0,0,0,0,0,0,0,0,0,0,0,0,0,0,0,0,0,0,0,0,0,0,0,0,0,0,0,0,0,0,0,0,0,0.0303,0.0303,0,0.0299,0.0299,0.0299,0.0274,0.0273,0.0273,0.0273,0.0251,0.0251,0.0251,0,0,0,0,0,0,0,0,0,0,0,0,0,0.0301,0.0301,0.0303,0.0303,0.0303,0.0299,0.0299,0.0299,0.0274,0.0273,0.0273,0.0272,0.0251,0.0251,0.0251,0,0,0,0,0,0,0,0,0,0,0,0,0,0.0298,0.0301,0.0303,0.0291,0.029,0.0299,0.0299,0.0299,0.0274,0.0273,0.0273,0.0272,0.0251,0.0251,0.0251,0.0264,0,0,0.025,0.025,0,0,0,0,0,0,0,0,0.0299,0.0298,0.0293,0.0292,0.0291,0.0288,0.0291,0.0287,0.0274,0.0279,0.0272,0.0272,0.0263,0.0262,0.0261,0.0263,0.0262,0.025,0.025,0.025,0.025,0,0,0,0,0,0,0,0.0299,0.0298,0.03,0.0293,0.0292,0.0291,0.0289,0.029,0.0273,0.0278,0.0277,0.0279,0.0262,0.0261,0.026,0.0262,0.025,0.025,0.025,0.025,0.0267,0.0267,0,0,0,0,0,0,0.0302,0.0299,0.03,0.03,0.0295,0.0291,0.029,0.0288,0.0274,0.0271,0.028,0.0278,0.0262,0.0261,0.0259,0.0276,0.025,0.025,0.025,0.0266,0.0267,0.0268,0,0,0,0,0,0,0.0302,0.0302,0.03,0.0301,0.03,0.0292,0.0291,0.0288,0.0289,0.0275,0.0272,0.0283,0.0261,0.026,0.0258,0.0275,0.025,0.025,0.0266,0.0267,0.0267,0.0308,0,0,0,0,0,0,0.0302,0.0302,0.0301,0.0301,0.03,0.0311,0.0291,0.0289,0.0292,0.029,0.0277,0.0274,0.0261,0.0259,0.0258,0.0274,0.025,0.0265,0.0266,0.0267,0.0306,0.031,0.0313,0,0,0,0,0,0.0302,0.0309,0.0301,0.0301,0.0299,0.0312,0.0312,0.0303,0.0293,0.0299,0.0285,0.0275,0.0265,0.0259,0.0258,0.0274,0.0264,0.0266,0.0267,0.0304,0.0309,0.0313,0,0,0,0,0,0,0.0307,0.0308,0.0298,0.0304,0.0309,0.0308,0.0314,0.0309,0.0303,0.03,0.0281,0.0278,0.0283,0.0274,0.0267,0.0282,0.0264,0.0265,0.0292,0.0297,0.0301,0.0325,0.0249,0,0,0,0,0,0.0308,0.0316,0.0314,0.0321,0.0322,0.0318,0.0321,0.0319,0.0316,0.0312,0.03,0.0291,0.0289,0.0288,0.0282,0.0293,0.0299,0.0303,0.0307,0.031,0.0329,0.0361,0.037,0.0272,0.0272,0.0272,0,0,0.0314,0.0315,0.0319,0.0323,0.0323,0.0337,0.0318,0.0331,0.0343,0.0312,0.0319,0.0304,0.0294,0.0301,0.0303,0.0295,0.0336,0.0311,0.0315,0.0332,0.0364,0.0373,0.0382,0.0273,0.0273,0.0272,0,0,0.0337,0.0328,0.0342,0.0349,0.0356,0.0356,0.0362,0.0362,0.036,0.0368,0.0347,0.0346,0.0338,0.0337,0.0335,0.0361,0.0355,0.0353,0.0395,0.0426,0.0435,0.0443,0.0444,0.0451,0.0356,0.0357,0.0357,0,0.0342,0.0357,0.035,0.0366,0.0378,0.0367,0.0389,0.039,0.039,0.0397,0.0376,0.0379,0.0362,0.0385,0.0385,0.0372,0.0378,0.0377,0.0433,0.0441,0.0448,0.0447,0.0456,0.0359,0.0358,0.0358,0.0358,0,0.0376,0.0387,0.0398,0.0413,0.0426,0.0445,0.0447,0.0454,0.0449,0.0451,0.0467,0.0445,0.0453,0.044,0.0418,0.046,0.0442,0.0433,0.0424,0.0461,0.0457,0.0465,0.0362,0.0361,0.036,0.036,0,0,0.0392,0.0416,0.0421,0.0437,0.0453,0.0471,0.0492,0.0514,0.054,0.053,0.0568,0.0548,0.054,0.0538,0.0513,0.053,0.0567,0.0505,0.0506,0.0511,0.062,0.057,0.0573,0.0571,0.0573,0.0575,0.0588,0,0.042,0.0462,0.0466,0.051,0.0532,0.0534,0.0562,0.0582,0.0588,0.062,0.061,0.0632,0.0577,0.0586,0.0596,0.0592,0.0593,0.0564,0.0579,0.0579,0.0536,0.0583,0.0561,0.0569,0.0596,0.0597,0.0598,0,0.0451,0.0478,0.0523,0.0566,0.0577,0.0599,0.0647,0.0671,0.0706,0.0715,0.0734,0.073,0.0758,0.0703,0.072,0.0706,0.0665,0.0646,0.0646,0.0597,0.0545,0.054,0.0582,0.052,0.061,0.0609,0.0608,0,0.0476,0.0518,0.0557,0.0571,0.0616,0.0638,0.0662,0.07,0.0741,0.0782,0.0828,0.084,0.0878,0.0847,0.0799,0.0772,0.0812,0.077,0.0676,0.0671,0.0656,0.0646,0.065,0.0769,0.0769,0.0769,0.0769,0,0.0508,0.054,0.0571,0.0595,0.0656,0.067,0.0734,0.076,0.0819,0.0899,0.0883,0.0957,0.0921,0.0933,0.0855,0.0804,0.0858,0.0702,0.0686,0.0664,0.0656,0.0603,0.0562,0.077,0.077,0.077,0.0769,0,0.0536,0.0551,0.0604,0.0651,0.0669,0.0715,0.0786,0.0841,0.0883,0.0993,0.1021,0.1077,0.11,0.103,0.0998,0.0892,0.0787,0.0781,0.0741,0.072,0.0558,0.0519,0.0507,0.0487,0.0693,0.0692,0.0692,0,0.0557,0.0584,0.0647,0.0688,0.071,0.077,0.0826,0.0873,0.0945,0.1077,0.1153,0.1201,0.1249,0.1165,0.1004,0.0861,0.078,0.0715,0.0651,0.0564,0.0511,0.0484,0.0467,0.0638,0.0637,0.0636,0.0635,0,0.0604,0.0621,0.0668,0.0746,0.0805,0.0879,0.0959,0.1027,0.1115,0.1215,0.1357,0.1403,0.132,0.1188,0.0967,0.0855,0.067,0.0688,0.0633,0.0503,0.0444,0.0412,0.059,0.0627,0.0628,0.0628,0.0629,0.0629,0.0643,0.0683,0.0738,0.0815,0.0888,0.0987,0.1057,0.1159,0.1288,0.1439,0.1488,0.1549,0.1333,0.1044,0.0894,0.0589,0.0608,0.048,0.045,0.0437,0.0397,0.0536,0.053,0.053,0.053,0.053,0.0531,0,0.0687,0.0731,0.0806,0.0897,0.0982,0.1013,0.1152,0.1232,0.1389,0.1506,0.161,0.15,0.1244,0.0967,0.0557,0.0376,0.033,0.0294,0.0268,0.0269,0.0427,0.0402,0.0328,0.0328,0.0328,0.0328,0.0328,0.0328,0.0715,0.0783,0.0816,0.0955,0.1025,0.1143,0.1225,0.1352,0.1451,0.1548,0.1545,0.1542,0.1314,0.0677,0.0285,0.0208,0.0129,0.0085,0.007,0.0178,0.0193,0.0208,0.0178,0.0057,0.0057,-0.0068,-0.007,-0.0071]}],[{"header":{"parameterUnit":"m.s-1","parameterCategory":2,"la1":30.2991,"la2":30.254,"lo1":-89.0895,"lo2":-89.0444,"dy":0.0017,"dx":0.0017,"nx":28,"ny":28,"refTime":"2025-09-14T21:00:00:Z","depth":"2","parameterNumber":2,"parameterNumberName":"U-component_of_CURRENTS"},"data":[0,0,0,0,0,0,0,0,0,0,0,0,0,0,0,0,0,0,0,0,0,0,0,0,0,0,0,0,0,0,0,0,0,0,0,0,0,0,0,0,0,0,0,0,0,0,0,0,0,0,0,0,0,0,0,0,0,0,0.2022,0.2022,0,0.202,0.202,0.202,0.2042,0.2043,0.2043,0.2043,0.2043,0.2042,0.2042,0,0,0,0,0,0,0,0,0,0,0,0,0,0.2059,0.2058,0.2022,0.2022,0.2021,0.202,0.202,0.2021,0.2042,0.2043,0.2043,0.2043,0.2043,0.2043,0.2042,0,0,0,0,0,0,0,0,0,0,0,0,0,0.2052,0.2058,0.2022,0.2029,0.203,0.202,0.202,0.2021,0.2042,0.2043,0.2043,0.2043,0.2043,0.2043,0.2042,0.2032,0,0,0.2041,0.2041,0,0,0,0,0,0,0,0,0.2052,0.2051,0.2029,0.2029,0.2029,0.2029,0.2033,0.2023,0.2042,0.2041,0.2043,0.2044,0.2035,0.2036,0.204,0.2032,0.2032,0.2041,0.2041,0.2041,0.204,0,0,0,0,0,0,0,0.2053,0.2051,0.2025,0.2028,0.2028,0.2037,0.2037,0.2032,0.2039,0.2041,0.2042,0.2036,0.2036,0.204,0.204,0.2032,0.2041,0.2041,0.204,0.204,0.21,0.2102,0,0,0,0,0,0,0.2044,0.2051,0.2025,0.2024,0.2038,0.2036,0.2036,0.2031,0.2039,0.2039,0.2036,0.2037,0.204,0.204,0.204,0.2082,0.2041,0.204,0.204,0.2098,0.21,0.2102,0,0,0,0,0,0,0.2045,0.2042,0.2025,0.2035,0.2033,0.2034,0.2029,0.2031,0.2046,0.2034,0.2035,0.205,0.2041,0.204,0.2065,0.208,0.204,0.204,0.2096,0.2099,0.2101,0.2131,0,0,0,0,0,0,0.2046,0.2042,0.2046,0.2034,0.2032,0.2029,0.2029,0.2031,0.2039,0.2041,0.2046,0.2046,0.2041,0.2066,0.2065,0.2079,0.2039,0.2094,0.2097,0.2101,0.2128,0.2135,0.214,0,0,0,0,0,0.2048,0.2043,0.2046,0.2043,0.2034,0.2029,0.203,0.2034,0.204,0.205,0.2067,0.2047,0.2087,0.2067,0.2065,0.2079,0.2092,0.2096,0.21,0.2125,0.2133,0.214,0,0,0,0,0,0,0.2064,0.2044,0.2048,0.2039,0.204,0.2032,0.2042,0.204,0.2061,0.2078,0.2064,0.2066,0.2091,0.2089,0.2067,0.2112,0.2088,0.2092,0.2108,0.2115,0.2121,0.2145,0.2039,0,0,0,0,0,0.2067,0.205,0.2049,0.2038,0.2051,0.2051,0.2053,0.2061,0.2069,0.208,0.2079,0.2094,0.2105,0.2114,0.2121,0.2141,0.2161,0.2154,0.216,0.2165,0.2187,0.2232,0.2244,0.2116,0.2116,0.2116,0,0,0.2056,0.2051,0.2035,0.2039,0.2048,0.2056,0.2055,0.2072,0.2079,0.2076,0.2099,0.211,0.2116,0.2143,0.2155,0.2144,0.2214,0.217,0.2174,0.2194,0.2237,0.2249,0.226,0.2119,0.2118,0.2118,0,0,0.2043,0.2045,0.2043,0.2055,0.2077,0.2072,0.2079,0.2092,0.2111,0.2135,0.2137,0.217,0.2176,0.2192,0.2197,0.2245,0.2241,0.2243,0.2294,0.2336,0.2347,0.2356,0.2399,0.2412,0.225,0.225,0.225,0,0.2042,0.2035,0.2042,0.2065,0.2074,0.2078,0.2098,0.2108,0.2123,0.2141,0.2153,0.2195,0.2203,0.2232,0.2267,0.2257,0.2285,0.2257,0.2343,0.2353,0.2363,0.2404,0.2418,0.2252,0.2251,0.2251,0.2251,0,0.2044,0.2044,0.2051,0.2067,0.2086,0.2097,0.2122,0.2132,0.2153,0.2168,0.2219,0.2251,0.2272,0.2287,0.2298,0.2363,0.2363,0.2339,0.2319,0.2377,0.2417,0.2431,0.2254,0.2254,0.2253,0.2253,0,0,0.201,0.2042,0.2042,0.2058,0.2095,0.2104,0.2125,0.2144,0.2157,0.2204,0.2246,0.2296,0.2322,0.2335,0.235,0.2417,0.2514,0.2424,0.2426,0.2459,0.2621,0.2453,0.2452,0.2505,0.2508,0.251,0.2622,0,0.2007,0.2034,0.2056,0.2067,0.2087,0.2109,0.2122,0.2151,0.2181,0.222,0.2284,0.2331,0.2332,0.2369,0.2427,0.2507,0.2554,0.2487,0.2569,0.2572,0.2407,0.2463,0.2261,0.2328,0.2636,0.2638,0.264,0,0.2008,0.202,0.2044,0.2071,0.2087,0.2093,0.2123,0.2157,0.2211,0.2241,0.2298,0.2343,0.2451,0.2447,0.2587,0.2548,0.2589,0.2645,0.2649,0.2494,0.2429,0.2322,0.2343,0.2664,0.2662,0.266,0.2658,0,0.198,0.2009,0.202,0.2033,0.2066,0.2081,0.2116,0.2165,0.2214,0.2282,0.2324,0.2408,0.249,0.2567,0.265,0.2644,0.2804,0.2789,0.2664,0.2653,0.2498,0.2466,0.2867,0.2867,0.2867,0.2867,0.2866,0,0.1962,0.1963,0.2002,0.2004,0.2022,0.2089,0.2121,0.2151,0.2241,0.229,0.2355,0.2405,0.2534,0.2618,0.2679,0.2705,0.2803,0.2692,0.2672,0.2499,0.2468,0.2768,0.2755,0.2871,0.287,0.2869,0.2868,0,0.1929,0.1944,0.1959,0.1997,0.2008,0.2049,0.2137,0.2166,0.2245,0.232,0.2358,0.2465,0.2551,0.2628,0.2766,0.2723,0.2778,0.2741,0.2523,0.2473,0.2606,0.2593,0.266,0.2655,0.265,0.2647,0.2644,0,0.1911,0.1916,0.1957,0.1972,0.1988,0.2041,0.2067,0.2154,0.2196,0.2328,0.2367,0.2481,0.2486,0.26,0.2577,0.2601,0.2686,0.2392,0.2321,0.261,0.2587,0.2581,0.2574,0.2153,0.2146,0.2141,0.2136,0,0.1874,0.1894,0.1899,0.1942,0.1967,0.199,0.2048,0.2073,0.2168,0.222,0.2282,0.2322,0.2379,0.2297,0.229,0.2281,0.2373,0.2274,0.2664,0.2198,0.213,0.2107,0.2118,0.2087,0.2092,0.2096,0.2098,0.21,0.1842,0.1845,0.186,0.189,0.1925,0.1927,0.1911,0.1956,0.1993,0.2024,0.2121,0.2092,0.2105,0.1993,0.1934,0.1891,0.2064,0.1982,0.2001,0.2026,0.1908,0.1832,0.1714,0.1717,0.1719,0.1721,0.1723,0,0.1789,0.1791,0.1815,0.1813,0.182,0.1877,0.1874,0.1816,0.1793,0.184,0.1839,0.1661,0.1597,0.1635,0.1486,0.1456,0.1481,0.1401,0.1434,0.1483,0.1526,0.1385,0.1051,0.1049,0.1047,0.1046,0,0,0.1758,0.1722,0.1721,0.168,0.1719,0.1637,0.1623,0.1573,0.1555,0.1477,0.1449,0.1518,0.1578,0.1299,0.1249,0.1132,0.1308,0.1084,0.1623,0.1712,0.1753,0.1856,0.1691,0,0,0,0,0]},{"header":{"parameterUnit":"m.s-1","parameterCategory":2,"la1":30.2991,"la2":30.254,"lo1":-89.0895,"lo2":-89.0444,"dy":0.0017,"dx":0.0017,"nx":28,"ny":28,"refTime":"2025-09-14T21:00:00:Z","depth":"2","parameterNumber":3,"parameterNumberName":"V-component_of_CURRENTS"},"data":[0,0,0,0,0,0,0,0,0,0,0,0,0,0,0,0,0,0,0,0,0,0,0,0,0,0,0,0,0,0,0,0,0,0,0,0,0,0,0,0,0,0,0,0,0,0,0,0,0,0,0,0,0,0,0,0,0,0,0.0048,0.0048,0,0.0028,0.0028,0.0028,0.0017,0.0017,0.0017,0.0016,-0.0006,-0.0006,-0.0007,0,0,0,0,0,0,0,0,0,0,0,0,0,0.0064,0.0064,0.0048,0.0048,0.0047,0.0028,0.0028,0.0028,0.0017,0.0017,0.0016,0.0016,-0.0006,-0.0006,-0.0007,0,0,0,0,0,0,0,0,0,0,0,0,0,0.0053,0.0064,0.0048,0.0038,0.0037,0.0028,0.0028,0.0028,0.0017,0.0017,0.0016,0.0016,-0.0006,-0.0006,-0.0007,-0.0005,0,0,-0.0009,-0.0009,0,0,0,0,0,0,0,0,0.0054,0.0053,0.004,0.0039,0.0038,0.0023,0.0025,0.0016,0.0017,0.0026,0.0016,0.0016,0.0003,0.0001,0.0001,-0.0006,-0.0007,-0.0009,-0.0009,-0.001,-0.001,0,0,0,0,0,0,0,0.0055,0.0054,0.0042,0.004,0.0038,0.003,0.0029,0.0024,0.0018,0.0026,0.0024,0.0019,0.0002,0.0001,0.0,-0.0008,-0.0009,-0.0009,-0.001,-0.001,-0.0012,-0.0012,0,0,0,0,0,0,0.0055,0.0055,0.0043,0.0041,0.0043,0.003,0.0029,0.003,0.0018,0.0015,0.002,0.0019,0.0003,0.0001,-0.0001,0.0008,-0.001,-0.001,-0.001,-0.0012,-0.0012,-0.0012,0,0,0,0,0,0,0.0055,0.0054,0.0043,0.0046,0.0044,0.003,0.0031,0.0029,0.0029,0.0013,0.0011,0.0021,0.0002,0.0,-0.0005,0.0007,-0.001,-0.0011,-0.0013,-0.0012,-0.0012,0.0021,0,0,0,0,0,0,0.0056,0.0055,0.0055,0.0046,0.0043,0.0042,0.0031,0.0029,0.0026,0.0025,0.0014,0.0011,0.0002,-0.0004,-0.0005,0.0005,-0.0011,-0.0013,-0.0013,-0.0012,0.0019,0.0022,0.0025,0,0,0,0,0,0.0057,0.0064,0.0055,0.0053,0.0044,0.0042,0.004,0.0031,0.0026,0.0029,0.0019,0.0012,-0.0001,-0.0004,-0.0006,0.0005,-0.0013,-0.0013,-0.0012,0.0018,0.0022,0.0025,0,0,0,0,0,0,0.0071,0.0063,0.0053,0.0057,0.0049,0.0039,0.0041,0.0034,0.0029,0.0029,0.0014,0.0011,0.001,0.0003,-0.0,0.0006,-0.0008,-0.0007,0.0016,0.0019,0.0022,0.0036,-0.0012,0,0,0,0,0,0.0073,0.0076,0.0064,0.0066,0.0063,0.0052,0.0049,0.0044,0.0037,0.0035,0.0026,0.0018,0.0012,0.0012,0.0003,0.0008,0.0009,0.0014,0.0017,0.0019,0.003,0.0044,0.005,-0.0009,-0.0009,-0.0009,0,0,0.0075,0.0073,0.0072,0.0068,0.0062,0.0069,0.005,0.0051,0.006,0.0034,0.0043,0.0026,0.0014,0.0017,0.0017,0.0013,0.0034,0.002,0.0023,0.0032,0.0046,0.0052,0.0057,-0.0009,-0.0009,-0.0009,0,0,0.0093,0.0084,0.0095,0.0092,0.0087,0.0081,0.0083,0.0076,0.0076,0.0077,0.0061,0.0051,0.0044,0.0039,0.0035,0.0049,0.0045,0.0046,0.0077,0.0091,0.0097,0.0101,0.0101,0.0106,0.0052,0.0052,0.0052,0,0.0097,0.011,0.0096,0.011,0.0112,0.009,0.0106,0.0104,0.0096,0.0101,0.0085,0.0073,0.0057,0.0065,0.0067,0.0056,0.0061,0.0066,0.0096,0.0101,0.0105,0.0104,0.0108,0.0054,0.0054,0.0054,0.0053,0,0.0125,0.0135,0.0143,0.0152,0.0152,0.0161,0.0155,0.0159,0.0151,0.0146,0.0147,0.012,0.0114,0.0105,0.009,0.0112,0.0104,0.0095,0.009,0.0114,0.011,0.0114,0.0056,0.0056,0.0055,0.0055,0,0,0.0141,0.0159,0.0163,0.0177,0.0177,0.0184,0.0199,0.0208,0.023,0.0206,0.0229,0.0198,0.0178,0.0172,0.0148,0.0157,0.0179,0.0144,0.0144,0.0148,0.0207,0.0161,0.0161,0.0182,0.0183,0.0184,0.019,0,0.0169,0.0209,0.0206,0.0239,0.0257,0.0246,0.0266,0.027,0.027,0.0287,0.0254,0.0263,0.0206,0.021,0.0203,0.0198,0.0193,0.0178,0.0181,0.018,0.0141,0.0166,0.0175,0.0178,0.0194,0.0194,0.0195,0,0.0199,0.0225,0.0263,0.0294,0.0301,0.0315,0.0347,0.0364,0.0375,0.0377,0.0365,0.0343,0.0339,0.0292,0.0277,0.0274,0.0239,0.0224,0.0224,0.0176,0.0143,0.0158,0.0184,0.0201,0.0201,0.02,0.02,0,0.0225,0.0264,0.0298,0.0307,0.0336,0.0355,0.0373,0.0392,0.0428,0.0442,0.0473,0.0438,0.0447,0.0404,0.0339,0.0326,0.0325,0.0302,0.022,0.0216,0.0221,0.0215,0.0286,0.0286,0.0286,0.0286,0.0286,0,0.0256,0.0285,0.0316,0.0335,0.0389,0.0394,0.0448,0.0467,0.0507,0.0566,0.0523,0.0562,0.0482,0.0458,0.0383,0.0313,0.0352,0.0233,0.022,0.0229,0.0224,0.0243,0.0238,0.0287,0.0287,0.0287,0.0287,0,0.0279,0.0295,0.0341,0.0382,0.0402,0.0442,0.0505,0.0553,0.0585,0.0666,0.0682,0.0678,0.065,0.0547,0.0486,0.0382,0.0315,0.027,0.0272,0.0258,0.0185,0.0181,0.02,0.0199,0.0197,0.0196,0.0196,0,0.0295,0.0321,0.0379,0.0417,0.0438,0.0496,0.0546,0.059,0.0654,0.0742,0.0799,0.0788,0.0777,0.0644,0.0481,0.0333,0.0309,0.0228,0.0192,0.0193,0.0179,0.0177,0.0176,0.0212,0.0211,0.0211,0.021,0,0.033,0.0346,0.0385,0.0465,0.0522,0.0591,0.067,0.0733,0.0805,0.0876,0.0958,0.0956,0.0824,0.0672,0.0449,0.0346,0.0251,0.021,0.0243,0.0219,0.0201,0.0188,0.0187,0.0206,0.0206,0.0207,0.0207,0.0207,0.0356,0.039,0.0443,0.052,0.0591,0.0686,0.0748,0.0841,0.0945,0.1042,0.1043,0.103,0.0863,0.0571,0.0399,0.0211,0.0222,0.0145,0.0148,0.0152,0.0139,0.0119,0.0105,0.0105,0.0105,0.0105,0.0105,0,0.0392,0.0431,0.05,0.0588,0.0669,0.0705,0.0834,0.0893,0.1015,0.1078,0.1111,0.0934,0.0772,0.0585,0.0306,0.0134,0.0132,0.0077,0.0119,0.0124,0.0129,0.0116,0.0075,0.0075,0.0074,0.0074,0,0,0.0413,0.0473,0.0507,0.0636,0.0705,0.0809,0.0883,0.0977,0.1041,0.1077,0.1062,0.1017,0.0814,0.0601,0.0385,0.0233,0.0214,0.0197,0.0238,0.0318,0.0325,0.0184,0.0171,0,0,0,0,0]}],[{"header":{"parameterUnit":"m.s-1","parameterCategory":2,"la1":30.2991,"la2":30.254,"lo1":-89.0895,"lo2":-89.0444,"dy":0.0017,"dx":0.0017,"nx":28,"ny":28,"refTime":"2025-09-14T21:00:00:Z","depth":"4","parameterNumber":2,"parameterNumberName":"U-component_of_CURRENTS"},"data":[0,0,0,0,0,0,0,0,0,0,0,0,0,0,0,0,0,0,0,0,0,0,0,0,0,0,0,0,0,0,0,0,0,0,0,0,0,0,0,0,0,0,0,0,0,0,0,0,0,0,0,0,0,0,0,0,0,0,0.0929,0.0929,0,0.0947,0.0947,0.0948,0.0992,0.0993,0.0993,0.0994,0.1028,0.1028,0.1029,0,0,0,0,0,0,0,0,0,0,0,0,0,0.0941,0.0941,0.0929,0.0929,0.0929,0.0947,0.0947,0.0948,0.0992,0.0993,0.0994,0.0994,0.1028,0.1028,0.1029,0,0,0,0,0,0,0,0,0,0,0,0,0,0.0948,0.0941,0.0929,0.0951,0.0953,0.0947,0.0947,0.0948,0.0992,0.0993,0.0994,0.0995,0.1028,0.1028,0.1029,0.1013,0,0,0.103,0.1031,0,0,0,0,0,0,0,0,0.0948,0.0948,0.0948,0.0949,0.0951,0.0965,0.0964,0.097,0.0992,0.0981,0.0994,0.0995,0.1006,0.1008,0.1014,0.1015,0.1016,0.103,0.1031,0.1031,0.1031,0,0,0,0,0,0,0,0.0947,0.0948,0.094,0.0947,0.0949,0.0962,0.0964,0.0966,0.0991,0.0982,0.0984,0.098,0.1007,0.1013,0.1015,0.1017,0.103,0.1031,0.1031,0.1031,0.1089,0.109,0,0,0,0,0,0,0.0937,0.0947,0.0939,0.094,0.0948,0.0961,0.0963,0.0963,0.099,0.0994,0.0979,0.0982,0.1012,0.1014,0.1016,0.1069,0.1031,0.1031,0.1032,0.1087,0.1089,0.109,0,0,0,0,0,0,0.0937,0.0936,0.0938,0.0941,0.0942,0.0959,0.0958,0.0962,0.0995,0.0988,0.0993,0.101,0.1013,0.1016,0.1043,0.1068,0.1032,0.1032,0.1086,0.1088,0.109,0.1129,0,0,0,0,0,0,0.0937,0.0936,0.0946,0.094,0.0941,0.0953,0.0957,0.0962,0.0988,0.0993,0.1015,0.1018,0.1014,0.1043,0.1044,0.1068,0.1032,0.1084,0.1087,0.1089,0.1127,0.1132,0.1137,0,0,0,0,0,0.0938,0.0939,0.0946,0.0946,0.0949,0.0953,0.0956,0.0973,0.0989,0.1007,0.1025,0.1019,0.1058,0.1044,0.1045,0.107,0.1083,0.1086,0.1089,0.1124,0.1131,0.1137,0,0,0,0,0,0,0.0955,0.0943,0.0951,0.0951,0.0961,0.096,0.0978,0.0987,0.1016,0.1029,0.103,0.1033,0.1067,0.1064,0.1048,0.1095,0.1072,0.1075,0.1098,0.1105,0.111,0.1106,0.1033,0,0,0,0,0,0.0959,0.0958,0.0955,0.0961,0.0969,0.0981,0.099,0.1,0.1013,0.1029,0.1041,0.1058,0.1074,0.1087,0.1096,0.1118,0.1129,0.1137,0.1142,0.1147,0.1146,0.1189,0.1198,0.1099,0.1099,0.1099,0,0,0.0967,0.0961,0.0962,0.0965,0.0979,0.0986,0.0992,0.1011,0.1022,0.1026,0.1059,0.1076,0.1085,0.1112,0.1128,0.1116,0.1184,0.115,0.1154,0.115,0.1193,0.1202,0.1211,0.1101,0.1101,0.11,0,0,0.0972,0.0983,0.0984,0.0991,0.1005,0.1009,0.102,0.1033,0.1053,0.1079,0.1088,0.1121,0.1144,0.1153,0.1161,0.1201,0.121,0.1213,0.1238,0.128,0.1289,0.1296,0.1334,0.1344,0.1217,0.1217,0.1217,0,0.0986,0.0982,0.0989,0.0993,0.0998,0.1022,0.1028,0.1047,0.1068,0.108,0.1099,0.115,0.116,0.1189,0.1211,0.1212,0.1241,0.1211,0.1287,0.1295,0.1302,0.1339,0.135,0.1219,0.1219,0.1219,0.1218,0,0.0983,0.0992,0.0999,0.1008,0.1018,0.1031,0.1045,0.107,0.1099,0.111,0.116,0.1187,0.122,0.1233,0.1238,0.1292,0.1298,0.1289,0.1269,0.1314,0.135,0.1361,0.1222,0.1221,0.1221,0.122,0,0,0.098,0.0993,0.0999,0.1002,0.1026,0.1027,0.1056,0.1076,0.1101,0.1142,0.1178,0.1223,0.1255,0.1266,0.1286,0.1324,0.1405,0.1337,0.1338,0.1372,0.1511,0.1377,0.1376,0.142,0.1422,0.1423,0.152,0,0.0982,0.0983,0.0993,0.1004,0.1005,0.1032,0.1054,0.1077,0.1116,0.1159,0.1201,0.1246,0.1263,0.13,0.1344,0.1388,0.1435,0.138,0.1464,0.1467,0.134,0.1384,0.1429,0.1528,0.1531,0.1532,0.1534,0,0.0973,0.0972,0.098,0.0991,0.0998,0.1017,0.1055,0.1077,0.1135,0.1173,0.1234,0.1269,0.134,0.135,0.146,0.1432,0.1481,0.1511,0.1515,0.1379,0.1351,0.1472,0.1553,0.1552,0.155,0.1549,0.1548,0,0.0942,0.096,0.0964,0.0969,0.0991,0.1013,0.1037,0.1087,0.1117,0.1194,0.1237,0.1313,0.1379,0.1446,0.1521,0.1507,0.1634,0.1615,0.1539,0.1531,0.1605,0.1596,0.1693,0.1693,0.1693,0.1692,0.1692,0,0.0917,0.0921,0.0959,0.0955,0.0976,0.1001,0.1041,0.1079,0.1149,0.1187,0.1256,0.1305,0.1412,0.1489,0.1543,0.1574,0.166,0.1546,0.1545,0.1621,0.1612,0.1613,0.1603,0.1696,0.1695,0.1694,0.1694,0,0.0876,0.09,0.0904,0.094,0.096,0.0977,0.1042,0.1065,0.1145,0.1207,0.1237,0.1333,0.1422,0.1507,0.162,0.1591,0.1633,0.1626,0.1713,0.1714,0.1498,0.1489,0.1536,0.1532,0.1529,0.1526,0.1523,0,0.0848,0.0849,0.0893,0.0904,0.0929,0.0967,0.0991,0.1063,0.1092,0.1208,0.1228,0.1337,0.1396,0.1461,0.154,0.1612,0.1599,0.1603,0.153,0.1487,0.1482,0.1478,0.1473,0.1518,0.1517,0.1516,0.1515,0,0.0794,0.0828,0.0838,0.0866,0.0895,0.0905,0.0951,0.0972,0.1056,0.1144,0.1202,0.1243,0.1332,0.1396,0.1463,0.1508,0.158,0.1567,0.1574,0.1505,0.1466,0.1463,0.1463,0.1504,0.1505,0.1507,0.1507,0,0.0768,0.0771,0.08,0.0817,0.0843,0.0832,0.0862,0.0901,0.0944,0.1083,0.1102,0.1222,0.1327,0.1344,0.1404,0.143,0.1402,0.135,0.1367,0.1381,0.1278,0.1203,0.1162,0,0,0,0,0,0.0738,0.0733,0.0742,0.0745,0.0765,0.0777,0.0825,0.0859,0.0959,0.0977,0.1041,0.1117,0.1182,0.1233,0.1231,0.1312,0.1397,0.1298,0.1342,0.1439,0.1453,0.1342,0,0,0,0,0,0,0.0715,0.0725,0.0721,0.0681,0.0673,0.0676,0.0702,0.0764,0.078,0.0901,0.0953,0.1038,0.1128,0.1193,0.1213,0.1228,0.1226,0.1374,0.1371,0.1432,0.1444,0.1455,0.1346,0,0,0,0,0]},{"header":{"parameterUnit":"m.s-1","parameterCategory":2,"la1":30.2991,"la2":30.254,"lo1":-89.0895,"lo2":-89.0444,"dy":0.0017,"dx":0.0017,"nx":28,"ny":28,"refTime":"2025-09-14T21:00:00:Z","depth":"4","parameterNumber":3,"parameterNumberName":"V-component_of_CURRENTS"},"data":[0,0,0,0,0,0,0,0,0,0,0,0,0,0,0,0,0,0,0,0,0,0,0,0,0,0,0,0,0,0,0,0,0,0,0,0,0,0,0,0,0,0,0,0,0,0,0,0,0,0,0,0,0,0,0,0,0,0,0.0068,0.0068,0,0.0051,0.0051,0.0051,0.0041,0.004,0.004,0.004,0.0032,0.0032,0.0032,0,0,0,0,0,0,0,0,0,0,0,0,0,0.0069,0.0069,0.0068,0.0068,0.0067,0.0051,0.0051,0.0051,0.0041,0.004,0.004,0.004,0.0032,0.0032,0.0032,0,0,0,0,0,0,0,0,0,0,0,0,0,0.0062,0.0069,0.0068,0.006,0.0059,0.0051,0.0051,0.0051,0.0041,0.004,0.004,0.004,0.0033,0.0032,0.0032,0.0033,0,0,0.0031,0.0031,0,0,0,0,0,0,0,0,0.0062,0.0062,0.0062,0.0061,0.006,0.0048,0.0048,0.0045,0.0041,0.0048,0.004,0.004,0.0038,0.0038,0.0035,0.0032,0.0032,0.0031,0.0031,0.0031,0.0031,0,0,0,0,0,0,0,0.0063,0.0062,0.0061,0.0061,0.006,0.005,0.0049,0.0047,0.0044,0.0047,0.0046,0.0044,0.0038,0.0035,0.0035,0.0032,0.0031,0.0031,0.0031,0.0031,0.0025,0.0025,0,0,0,0,0,0,0.0066,0.0063,0.0062,0.0061,0.0061,0.005,0.0049,0.0052,0.0044,0.0043,0.0044,0.0044,0.0035,0.0035,0.0034,0.004,0.0031,0.0031,0.0031,0.0025,0.0025,0.0025,0,0,0,0,0,0,0.0066,0.0066,0.0063,0.0061,0.006,0.005,0.0053,0.0052,0.0051,0.0042,0.004,0.0046,0.0035,0.0035,0.0031,0.004,0.0031,0.0031,0.0025,0.0025,0.0025,0.0048,0,0,0,0,0,0,0.0066,0.0066,0.0068,0.0062,0.006,0.0061,0.0053,0.0051,0.005,0.0049,0.0043,0.0042,0.0035,0.0032,0.0031,0.0039,0.003,0.0025,0.0025,0.0025,0.0048,0.0049,0.005,0,0,0,0,0,0.0066,0.0072,0.0068,0.0068,0.0063,0.0062,0.006,0.0053,0.005,0.0052,0.0044,0.0042,0.0031,0.0031,0.0031,0.0039,0.0025,0.0025,0.0025,0.0047,0.0049,0.005,0,0,0,0,0,0,0.0072,0.0071,0.0067,0.0071,0.0068,0.006,0.0059,0.0056,0.0051,0.0052,0.0042,0.004,0.0039,0.0034,0.0035,0.0036,0.0028,0.0028,0.0045,0.0046,0.0048,0.0059,0.003,0,0,0,0,0,0.0074,0.008,0.0074,0.0078,0.0075,0.0068,0.0066,0.0064,0.0059,0.0057,0.005,0.0044,0.0038,0.0039,0.0032,0.0035,0.0022,0.0039,0.004,0.0042,0.0049,0.0028,0.0029,0.0025,0.0025,0.0025,0,0,0.0075,0.0077,0.0079,0.0079,0.0075,0.008,0.0067,0.0069,0.0077,0.0057,0.0063,0.0048,0.0039,0.0039,0.0038,0.0037,0.0035,0.0042,0.0043,0.005,0.0028,0.0029,0.0029,0.0025,0.0025,0.0025,0,0,0.0087,0.0084,0.0093,0.0094,0.0093,0.009,0.0093,0.0087,0.0087,0.0088,0.0074,0.0063,0.0058,0.0051,0.0047,0.0053,0.004,0.0052,0.0073,0.0053,0.0053,0.0053,0.0034,0.0032,0.0056,0.0056,0.0056,0,0.0088,0.0103,0.0094,0.0105,0.0111,0.0098,0.0112,0.0109,0.0104,0.0106,0.0094,0.0076,0.0065,0.0066,0.0065,0.0057,0.0044,0.0069,0.0055,0.0055,0.0055,0.0035,0.0033,0.0057,0.0057,0.0057,0.0057,0,0.0109,0.012,0.0126,0.0138,0.0141,0.0151,0.0148,0.0152,0.0146,0.014,0.0133,0.0109,0.0101,0.0091,0.0081,0.0077,0.0067,0.0056,0.0052,0.0056,0.0035,0.0032,0.0059,0.0059,0.0058,0.0058,0,0,0.0117,0.0138,0.0141,0.0157,0.0163,0.0171,0.0184,0.0191,0.0202,0.0182,0.0187,0.0165,0.0145,0.0139,0.012,0.0101,0.0081,0.0082,0.008,0.0067,0.0036,0.0033,0.003,0.0067,0.0067,0.0067,0.0021,0,0.0138,0.0171,0.0175,0.0207,0.0223,0.0221,0.0235,0.0239,0.0233,0.0232,0.0201,0.0194,0.0166,0.016,0.0137,0.0095,0.0075,0.0094,0.0032,0.003,0.003,0.0027,0.0066,0.0019,0.0019,0.0018,0.0018,0,0.0158,0.0182,0.0218,0.025,0.0257,0.0272,0.0296,0.0311,0.0303,0.0295,0.0276,0.0247,0.0219,0.019,0.0125,0.0139,0.0095,0.0057,0.0054,0.0043,0.0022,0.0014,0.0013,0.0013,0.0013,0.0014,0.0014,0,0.0172,0.0212,0.0247,0.0258,0.0288,0.0306,0.0324,0.0329,0.035,0.0336,0.0333,0.0291,0.027,0.0209,0.0132,0.0129,0.0053,0.0038,-0.0007,-0.0008,-0.0002,-0.0001,-0.0007,-0.0007,-0.0007,-0.0007,-0.0006,0,0.0193,0.0221,0.0259,0.0277,0.0324,0.0335,0.0376,0.0384,0.0397,0.0416,0.037,0.036,0.0272,0.0216,0.0145,0.0063,0.0063,-0.0001,-0.0019,0.0008,0.001,-0.0004,-0.0003,-0.0008,-0.0008,-0.0008,-0.0007,0,0.0201,0.0224,0.0267,0.031,0.033,0.0364,0.0418,0.0445,0.0452,0.0473,0.047,0.0414,0.0338,0.0249,0.0145,0.0084,0.0002,-0.0027,0.0012,-0.0003,-0.0049,-0.0047,-0.008,-0.0081,-0.0081,-0.0082,-0.0082,0,0.0207,0.0231,0.0291,0.0322,0.0345,0.04,0.0437,0.0469,0.0497,0.0501,0.0506,0.0444,0.0393,0.0246,0.0146,0.0016,-0.0006,-0.0049,-0.0053,-0.0042,-0.0056,-0.0053,-0.005,-0.0082,-0.0083,-0.0083,-0.0083,0,0.022,0.024,0.0275,0.0339,0.0386,0.0444,0.0497,0.0523,0.0557,0.0562,0.0536,0.0457,0.037,0.0248,0.0149,0.0052,-0.0023,-0.0054,-0.0054,-0.0058,-0.0046,-0.0058,-0.0055,-0.0084,-0.0084,-0.0084,-0.0084,0,0.0226,0.0251,0.0296,0.0354,0.0413,0.0467,0.0499,0.0533,0.0565,0.0573,0.0559,0.0465,0.0413,0.0266,0.0172,0.0081,0.0052,0.0015,0.0011,0.0012,0.0049,0.0078,0.0066,0,0,0,0,0,0.0234,0.0261,0.031,0.0369,0.0425,0.0462,0.0529,0.0557,0.0589,0.0579,0.0576,0.0496,0.0353,0.0283,0.0192,0.0154,0.003,0.0043,-0.0016,-0.0092,-0.009,-0.0063,0,0,0,0,0,0,0.0238,0.0279,0.0304,0.0369,0.041,0.0475,0.0519,0.0545,0.0542,0.0556,0.0483,0.0459,0.032,0.0402,0.0183,0.0155,0.0103,-0.0019,-0.0021,-0.0093,-0.0091,-0.009,-0.0061,0,0,0,0,0]}]]